Regional Weather Roundup
Issued by NWS

Home | Current Version | Previous Version | Graphics & Text | Print | Product List | Glossary On
Versions: 1 2 3 4 5 6 7 8 9 10 11 12 13 14 15 16 17 18 19 20 21 22 23 24 25 26 27 28 29 30 31 32 33 34 35 36 37 38 39 40 41 42 43 44 45 46 47 48 49 50
295
ASUS43 KIND 290709
RWRIN

WEATHER ROUNDUP FOR INDIANA
NATIONAL WEATHER SERVICE INDIANAPOLIS IN
300 AM EDT WED MAR 29 2017

NOTE: "FAIR" INDICATES FEW OR NO CLOUDS BELOW 12,000 FEET WITH NO
SIGNIFICANT WEATHER AND/OR OBSTRUCTIONS TO VISIBILITY.

* - STATION DOES NOT REPORT WEATHER SUCH AS PRECIPITATION OR FOG.

+ - STATION NOT QUALITY CONTROLLED BY THE NATIONAL WEATHER SERVICE.
    USE DATA WITH CAUTION...ESPECIALLY DEWPOINT AND RELATIVE
    HUMIDITY OBSERVATIONS.

INZ001>003-010>013-019-020-290800-
NORTHWEST INDIANA

CITY           SKY/WX    TMP DP  RH WIND       PRES   REMARKS
GARY /AIRPORT/ FOG       37  37 100 NE9       30.23F VSB 1/2
KNOX *+        MOCLDY    37  28  70 NE7       30.21R
LA PORTE +     CLEAR     34  34  98 N6        30.22R WCI  29
MICHIGAN CITY+ FOG       36  36 100 CALM      30.24S VSB 1/4
MONTICELLO +   CLOUDY    45  42  88 NE8       30.17S
RENSSELAER +   CLOUDY    45  43  93 NE8       30.18F
VALPARAISO     CLEAR     37  36  96 NE8       30.21S

$$

LMZ046-743>745-290800-
SOUTHERN LAKE MICHIGAN

STATION/POSITION TIME  TEMP    WIND        PRES    WAVE
                       AIR SEA DIR/SP/G            HT
                 (UTC) (F)     (DEG/KT/KT) (MB)    (FT)
BURNS HARBOR     0640   35      60/ 10/ 14 1024.0R
MICHIGAN CITY    0640   35      40/  9/ 11   N/A

$$

INZ004-005-014>016-021>024-290800-
NORTH CENTRAL INDIANA

CITY           SKY/WX    TMP DP  RH WIND       PRES   REMARKS
GOSHEN         CLEAR     36  32  85 NE5       30.22S FOG
LOGANSPORT +   CLOUDY    45  41  87 NE7       30.19S
PERU/GRISSOM   CLOUDY    46  45  96 NE12      30.17S
ROCHESTER +    CLOUDY    48  41  76 NE8       30.21R
SOUTH BEND     CLEAR     33  32  96 N6        30.23R WCI  28
WARSAW +       CLEAR     39  36  87 E5        30.21S

$$

INZ006>009-017-018-025>027-290800-
NORTHEAST INDIANA

CITY           SKY/WX    TMP DP  RH WIND       PRES   REMARKS
ANGOLA *+      CLOUDY    30  30 100 CALM      30.21S VSB 1/4
AUBURN +       CLEAR     37  34  87 NE3       30.21S FOG
FORT WAYNE     PTCLDY    42  38  85 NE9       30.20S
HUNTINGTON +   CLOUDY    44  41  91 NE5       30.19F
KENDALLVILLE + CLEAR     34  34 100 CALM      30.21S FOG

$$

INZ028-029-035-036-043>045-051>053-290800-
WEST CENTRAL INDIANA

CITY           SKY/WX    TMP DP  RH WIND       PRES   REMARKS
CRAWFORDSVL +  CLOUDY    45  45 100 NE6       30.14S
GREENCASTLE +  CLOUDY    46  45  93 NE6       30.13F
LAFAYETTE      CLOUDY    45  43  93 NE8       30.16F
TERRE HAUTE    CLOUDY    49  42  77 NE6       30.13F

$$

INZ030>032-037>040-046>048-054>057-064-065-290800-
CENTRAL INDIANA

CITY           SKY/WX    TMP DP  RH WIND       PRES   REMARKS
CP ATTERBURY + CLOUDY    50  46  87 NE5       30.14F
FISHERS *+     CLOUDY    46  46 100 CALM      30.15F
FRANKFORT +    CLOUDY    49  47  92 E6        30.17S
GREENWOOD *+   CLOUDY    49  49  97 E8        30.15F
INDIANAPOLIS   CLOUDY    49  47  93 NE9       30.13F FOG
-EAGLE CREEK   CLOUDY    49  46  90 E8        30.14F
KOKOMO +       CLOUDY    47  43  86 NE13      30.18S
MARION +       CLOUDY    45  42  88 E12       30.19S FOG
MT COMFORT *+  CLOUDY    46  45  93 NE8       30.14F
SHELBYVILLE    CLOUDY    50  45  83 NE12      30.13F
ZIONSVILLE +   CLOUDY    47  45  94 NE8       30.15F

$$

INZ033-034-041-042-049-050-058-059-290800-
EAST CENTRAL INDIANA

CITY           SKY/WX    TMP DP  RH WIND       PRES   REMARKS
MUNCIE         CLOUDY    47  44  90 E12       30.17R
RICHMOND +     CLOUDY    43  43 100 NE14      30.16S FOG

$$

INZ060-061-067>069-081>083-085>088-290800-
SOUTHWEST INDIANA

CITY           SKY/WX    TMP DP  RH WIND       PRES   REMARKS
EVANSVILLE     CLEAR     51  48  89 NE5       30.08F
HUNTINGBURG *+ CLEAR     51  47  86 NE7       30.09F
WASHINGTON +   CLEAR     49  46  89 MISG      30.10S

$$

INZ062-063-066-070>080-084-089>092-290800-
SOUTH CENTRAL AND SOUTHEAST INDIANA

CITY           SKY/WX    TMP DP  RH WIND       PRES   REMARKS
BEDFORD +      CLOUDY    54  46  76 NE6       30.10F
BLOOMINGTON    CLOUDY    51  45  79 NE6       30.11F
MADISON *+     CLOUDY    52  46  82 N3        30.14R
NORTH VERNON + CLOUDY    52  52 100 NE6       30.13S
SEYMOUR +      CLOUDY    54  48  82 NE8       30.11F

$$





USA.gov is the U.S. government's official web portal to all federal, state and local government web resources and services.